DW2907 Weather Reports


time (UTC)temp
F
wind
direction
speed
knots
gust
knots
rain 1hr
in
rain 24hr
in
rain mn
in
humidity
%
barometer
mb
20221207120020 75 139 0.0 0.0 0.00 0.00 0.00 1 1007.7
20221207115902 75 139 0.0 0.0 0.00 0.00 0.00 1 1007.8
20221207115747 75 139 0.0 0.0 0.00 0.00 0.00 1 1007.8
20221207115629 75 139 0.0 0.0 0.00 0.00 0.00 1 1007.8
20221207115511 75 139 0.0 0.0 0.00 0.00 0.00 1 1008.0
20221207115353 75 139 0.0 0.9 0.00 0.00 0.00 1 1008.1
20221207115223 75 139 0.0 0.9 0.00 0.00 0.00 1 1008.0
20221207115042 75 139 0.0 0.9 0.00 0.00 0.00 1 1008.0
20221207114945 75 139 0.0 0.9 0.00 0.00 0.00 1 1008.0
20221207114805 75 139 0.0 0.9 0.00 0.00 0.00 2 1008.0
20221207114656 75 139 0.0 0.9 0.00 0.00 0.00 2 1008.1
20221207114516 75 139 0.9 1.7 0.00 0.00 0.00 2 1008.1
20221207114358 75 139 0.0 2.6 0.00 0.00 0.00 2 1008.1
20221207114232 75 139 0.0 2.6 0.00 0.00 0.00 2 1008.1
20221207114112 75 139 0.0 2.6 0.00 0.00 0.00 2 1008.2
20221207113933 74 139 0.0 2.6 0.00 0.00 0.00 2 1008.2
20221207113814 75 139 0.9 2.6 0.00 0.00 0.00 2 1008.2
20221207113708 74 139 0.9 2.6 0.00 0.00 0.00 2 1008.1
20221207113549 74 138 0.9 1.7 0.00 0.00 0.00 2 1008.1
20221207113410 74 138 0.9 1.7 0.00 0.00 0.00 2 1007.9
20221207113250 74 80 0.0 1.7 0.00 0.00 0.00 2 1007.8
20221207113132 74 80 0.0 0.9 0.00 0.00 0.00 2 1007.7
20221207113035 74 80 0.0 0.9 0.00 0.00 0.00 3 1007.6
20221207112916 74 80 0.9 0.9 0.00 0.00 0.00 3 1007.5
20221207112736 74 80 0.0 0.9 0.00 0.00 0.00 3 1007.4
20221207112619 74 80 0.0 0.9 0.00 0.00 0.00 3 1007.4
20221207112504 74 80 0.0 0.9 0.00 0.00 0.00 3 1007.2
20221207112407 74 80 0.0 0.9 0.00 0.00 0.00 3 1007.2
20221207112259 74 80 0.0 0.9 0.00 0.00 0.00 3 1007.3
20221207112059 74 80 0.0 0.9 0.00 0.00 0.00 3 1007.1
20221207111942 74 80 0.0 0.9 0.00 0.00 0.00 3 1007.2
20221207111824 74 80 0.0 0.9 0.00 0.00 0.00 3 1007.1
20221207111716 74 80 0.0 0.9 0.00 0.00 0.00 3 1007.0
20221207111559 74 80 0.0 0.9 0.00 0.00 0.00 3 1006.9
20221207111441 74 80 0.0 0.9 0.00 0.00 0.00 3 1007.0
20221207111343 74 80 0.0 0.9 0.00 0.00 0.00 4 1007.0
20221207111218 74 80 0.0 0.9 0.00 0.00 0.00 4 1007.0
20221207111041 74 80 0.0 0.9 0.00 0.00 0.00 4 1007.0
20221207110944 74 80 0.0 0.9 0.00 0.00 0.00 4 1007.1
20221207110807 74 80 0.0 1.7 0.00 0.00 0.00 4 1007.0
20221207110659 74 80 0.0 1.7 0.00 0.00 0.00 4 1006.9
20221207110521 74 80 0.0 1.7 0.00 0.00 0.00 5 1006.8
20221207110403 74 80 0.0 1.7 0.00 0.00 0.00 5 1006.8
20221207110243 74 80 0.0 2.6 0.00 0.00 0.00 5 1006.7
20221207110124 74 80 0.9 2.6 0.00 0.00 0.00 5 1006.7
20221207110008 74 80 0.9 2.6 0.00 0.00 0.00 6 1006.7
20221207105849 74 80 0.0 2.6 0.00 0.00 0.00 7 1006.7
20221207105741 74 80 0.0 2.6 0.00 0.00 0.00 7 1006.8
20221207105624 74 80 0.9 2.6 0.00 0.00 0.00 7 1006.6
20221207105445 74 80 0.0 2.6 0.00 0.00 0.00 8 1006.6
20221207105325 74 6 0.0 0.0 0.00 0.00 0.00 10 1006.5
20221207105156 74 6 0.0 0.0 0.00 0.00 0.00 11 1006.6
20221207105037 74 6 0.0 0.0 0.00 0.00 0.00 11 1006.6
20221207104857 74 6 0.0 0.0 0.00 0.00 0.00 12 1006.5
20221207104738 74 6 0.0 0.0 0.00 0.00 0.00 12 1006.5
20221207104643 74 6 0.0 0.0 0.00 0.00 0.00 13 1006.5
20221207104504 74 6 0.0 0.0 0.00 0.00 0.00 14 1006.5
20221207104346 74 6 0.0 0.0 0.00 0.00 0.00 14 1006.4
20221207104256 74 6 0.0 0.0 0.00 0.00 0.00 15 1006.4
20221207104056 74 5 0.0 0.0 0.00 0.00 0.00 17 1006.4
20221207103939 74 5 0.0 0.9 0.00 0.00 0.00 17 1006.5
20221207103841 74 5 0.0 0.9 0.00 0.00 0.00 18 1006.6
20221207103654 74 5 0.0 1.7 0.00 0.00 0.00 19 1006.6
20221207103520 74 5 0.0 1.7 0.00 0.00 0.00 20 1006.5
20221207103423 74 5 0.0 1.7 0.00 0.00 0.00 21 1006.4
20221207103245 74 5 0.0 1.7 0.00 0.00 0.00 22 1006.5
20221207103127 74 5 0.9 1.7 0.00 0.00 0.00 22 1006.4
20221207103032 74 5 0.9 1.7 0.00 0.00 0.00 22 1006.4
20221207102853 74 5 0.9 3.5 0.00 0.00 0.00 23 1006.3
20221207102757 74 5 0.9 3.5 0.00 0.00 0.00 23 1006.2
20221207102640 74 5 0.9 3.5 0.00 0.00 0.00 24 1006.3
20221207102502 74 5 0.9 3.5 0.00 0.00 0.00 24 1006.2
20221207102406 74 4 0.9 3.5 0.00 0.00 0.00 24 1006.3
20221207102247 74 4 0.9 3.5 0.00 0.00 0.00 25 1006.2
20221207102130 74 4 1.7 3.5 0.00 0.00 0.00 25 1006.2
20221207101953 74 20 0.9 2.6 0.00 0.00 0.00 25 1006.2
20221207101840 75 20 0.9 2.6 0.00 0.00 0.00 25 1006.2
20221207101803 75 20 0.9 2.6 0.00 0.00 0.00 25 1006.2
20221207101605 75 20 0.9 2.6 0.00 0.00 0.00 26 1006.1
20221207101449 75 34 0.9 2.6 0.00 0.00 0.00 26 1006.1
20221207101331 75 34 0.9 3.5 0.00 0.00 0.00 26 1006.1
20221207101218 75 34 1.7 4.3 0.00 0.00 0.00 26 1006.1
20221207101039 75 7 0.9 5.2 0.00 0.00 0.00 26 1006.1
20221207100923 75 7 0.9 5.2 0.00 0.00 0.00 26 1006.1
20221207100827 75 7 1.7 5.2 0.00 0.00 0.00 26 1006.0
20221207100658 75 6 1.7 5.2 0.00 0.00 0.00 27 1006.0
20221207100520 75 1 1.7 5.2 0.00 0.00 0.00 27 1006.0
20221207100403 75 324 1.7 5.2 0.00 0.00 0.00 27 1005.9
20221207100246 75 355 2.6 5.2 0.00 0.00 0.00 28 1005.8
20221207100133 75 49 1.7 3.5 0.00 0.00 0.00 28 1005.9
20221207100035 75 17 1.7 3.5 0.00 0.00 0.00 28 1005.8
20221207095858 75 16 1.7 3.5 0.00 0.00 0.00 28 1005.8
20221207095754 75 24 1.7 3.5 0.00 0.00 0.00 28 1005.8
20221207095552 75 18 0.9 3.5 0.00 0.00 0.00 27 1005.8
20221207095435 75 18 1.7 4.3 0.00 0.00 0.00 28 1005.8
20221207095317 75 18 1.7 4.3 0.00 0.00 0.00 28 1005.9
20221207095203 75 24 1.7 4.3 0.00 0.00 0.00 27 1005.9
20221207095023 75 24 1.7 4.3 0.00 0.00 0.00 27 1005.9
20221207094904 75 12 1.7 4.3 0.00 0.00 0.00 27 1005.8
20221207094756 75 12 1.7 4.3 0.00 0.00 0.00 27 1005.8
20221207094611 75 15 0.9 4.3 0.00 0.00 0.00 27 1005.9
20221207094455 75 26 0.9 2.6 0.00 0.00 0.00 27 1005.8
20221207094400 75 26 0.9 2.6 0.00 0.00 0.00 28 1005.9
20221207094241 75 26 0.9 2.6 0.00 0.00 0.00 28 1005.8
20221207094103 75 26 1.7 2.6 0.00 0.00 0.00 28 1005.7
20221207093945 75 22 1.7 2.6 0.00 0.00 0.00 29 1005.8
20221207093825 75 21 1.7 2.6 0.00 0.00 0.00 29 1005.8
20221207093700 75 21 1.7 2.6 0.00 0.00 0.00 29 1005.8
20221207093522 76 16 1.7 2.6 0.00 0.00 0.00 30 1005.8
20221207093403 76 16 0.9 2.6 0.00 0.00 0.00 31 1005.8
20221207093232 76 16 1.7 2.6 0.00 0.00 0.00 31 1005.8
20221207093111 76 15 1.7 2.6 0.00 0.00 0.00 32 1005.8
20221207092937 76 15 1.7 2.6 0.00 0.00 0.00 32 1005.9
20221207092820 76 15 0.9 3.5 0.00 0.00 0.00 33 1005.8
20221207092654 76 15 0.9 3.5 0.00 0.00 0.00 33 1005.8
20221207092514 76 15 1.7 3.5 0.00 0.00 0.00 34 1005.9
20221207092356 76 15 0.9 3.5 0.00 0.00 0.00 34 1005.9
20221207092248 76 14 0.9 3.5 0.00 0.00 0.00 34 1006.0
20221207092109 76 39 1.7 3.5 0.00 0.00 0.00 35 1005.9
20221207091951 76 39 0.9 3.5 0.00 0.00 0.00 35 1005.9
20221207091833 76 28 1.7 3.5 0.00 0.00 0.00 36 1005.9
20221207091735 76 30 1.7 3.5 0.00 0.00 0.00 36 1005.9
20221207091556 76 15 1.7 3.5 0.00 0.00 0.00 36 1005.9
20221207091434 76 355 1.7 3.5 0.00 0.00 0.00 37 1005.9
20221207091320 76 39 1.7 3.5 0.00 0.00 0.00 37 1005.9
20221207091207 76 12 1.7 3.5 0.00 0.00 0.00 37 1005.8
20221207091027 77 26 1.7 2.6 0.00 0.00 0.00 38 1005.7
20221207090910 77 27 0.9 2.6 0.00 0.00 0.00 38 1005.7
20221207090743 77 27 1.7 2.6 0.00 0.00 0.00 39 1005.7
20221207090604 77 27 0.9 2.6 0.00 0.00 0.00 39 1005.7
20221207090447 77 27 0.9 2.6 0.00 0.00 0.00 39 1005.7
20221207090329 77 27 1.7 2.6 0.00 0.00 0.00 40 1005.7
20221207090158 77 26 1.7 2.6 0.00 0.00 0.00 40 1005.6
20221207090040 77 27 1.7 2.6 0.00 0.00 0.00 41 1005.6
20221207085923 77 17 1.7 2.6 0.00 0.00 0.00 41 1005.5
20221207085748 77 16 1.7 2.6 0.00 0.00 0.00 41 1005.5
20221207085631 77 41 0.9 2.6 0.00 0.00 0.00 42 1005.5
20221207085534 77 40 0.9 2.6 0.00 0.00 0.00 42 1005.4
20221207085354 77 40 0.9 2.6 0.00 0.00 0.00 43 1005.5
20221207085224 78 40 1.7 2.6 0.00 0.00 0.00 43 1005.4
20221207085042 78 44 1.7 2.6 0.00 0.00 0.00 44 1005.3
20221207084923 78 45 1.7 2.6 0.00 0.00 0.00 44 1005.4
20221207084806 78 45 1.7 2.6 0.00 0.00 0.00 44 1005.5
20221207084657 78 44 1.7 2.6 0.00 0.00 0.00 45 1005.6
20221207084519 78 40 0.9 2.6 0.00 0.00 0.00 45 1005.5
20221207084359 78 40 0.9 2.6 0.00 0.00 0.00 45 1005.6
20221207084252 78 6 0.9 4.3 0.00 0.00 0.00 45 1005.8
20221207084049 78 8 0.9 4.3 0.00 0.00 0.00 46 1005.6
20221207083932 78 8 1.7 4.3 0.00 0.00 0.00 46 1005.5
20221207083813 78 7 1.7 4.3 0.00 0.00 0.00 46 1005.5
20221207083706 78 10 1.7 4.3 0.00 0.00 0.00 47 1005.4
20221207083526 79 6 1.7 4.3 0.00 0.00 0.00 47 1005.4
20221207083407 79 32 1.7 4.3 0.00 0.00 0.00 47 1005.4
20221207083247 79 31 1.7 4.3 0.00 0.00 0.00 48 1005.3
20221207083150 79 42 1.7 4.3 0.00 0.00 0.00 48 1005.3
20221207083011 79 42 2.6 4.3 0.00 0.00 0.00 48 1005.4
20221207082852 79 18 1.7 2.6 0.00 0.00 0.00 48 1005.3
20221207082726 79 30 1.7 2.6 0.00 0.00 0.00 49 1005.2
20221207082547 79 32 1.7 2.6 0.00 0.00 0.00 49 1005.3
20221207082428 79 32 1.7 2.6 0.00 0.00 0.00 50 1005.2
20221207082307 79 32 1.7 2.6 0.00 0.00 0.00 50 1005.3
20221207082215 79 35 1.7 3.5 0.00 0.00 0.00 50 1005.3
20221207082014 80 35 1.7 4.3 0.00 0.00 0.00 50 1005.3
20221207081915 80 39 1.7 4.3 0.00 0.00 0.00 51 1005.3
20221207081806 80 41 1.7 4.3 0.00 0.00 0.00 51 1005.2
20221207081628 80 41 1.7 4.3 0.00 0.00 0.00 51 1005.1
20221207081448 80 41 1.7 4.3 0.00 0.00 0.00 51 1005.0
20221207081330 80 22 2.6 4.3 0.00 0.00 0.00 52 1005.1
20221207081217 80 5 2.6 4.3 0.00 0.00 0.00 52 1005.1
20221207081100 80 36 1.7 4.3 0.00 0.00 0.00 52 1005.0
20221207080941 80 36 1.7 4.3 0.00 0.00 0.00 52 1005.0
20221207080805 80 35 1.7 4.3 0.00 0.00 0.00 53 1004.9
20221207080718 80 36 2.6 4.3 0.00 0.00 0.00 53 1004.8
20221207080517 81 4 2.6 4.3 0.00 0.00 0.00 53 1004.8
20221207080356 81 20 1.7 4.3 0.00 0.00 0.00 53 1004.7
20221207080249 81 20 1.7 4.3 0.00 0.00 0.00 53 1004.7
20221207080131 81 25 1.7 4.3 0.00 0.00 0.00 54 1004.7
20221207075950 81 29 1.7 4.3 0.00 0.00 0.00 54 1004.6
20221207075849 81 28 1.7 4.3 0.00 0.00 0.00 54 1004.6
20221207075658 81 44 2.6 4.3 0.00 0.00 0.00 55 1004.6
20221207075518 81 34 2.6 4.3 0.00 0.00 0.00 55 1004.5
20221207075358 81 38 2.6 4.3 0.00 0.00 0.00 55 1004.6
20221207075227 82 11 2.6 4.3 0.00 0.00 0.00 55 1004.6
20221207075044 82 33 2.6 4.3 0.00 0.00 0.00 55 1004.6
20221207074919 82 43 1.7 4.3 0.00 0.00 0.00 55 1004.4
20221207074758 82 7 1.7 4.3 0.00 0.00 0.00 56 1004.4
20221207074700 82 80 2.6 4.3 0.00 0.00 0.00 56 1004.5
20221207074521 82 22 2.6 4.3 0.00 0.00 0.00 56 1004.4
20221207074423 82 19 2.6 4.3 0.00 0.00 0.00 56 1004.4
20221207074245 82 37 2.6 4.3 0.00 0.00 0.00 56 1004.4
20221207074126 82 13 2.6 4.3 0.00 0.00 0.00 56 1004.3
20221207074029 83 5 2.6 4.3 0.00 0.00 0.00 56 1004.3
20221207073849 83 12 1.7 3.5 0.00 0.00 0.00 56 1004.5
20221207073725 83 11 1.7 4.3 0.00 0.00 0.00 56 1004.4
20221207073536 83 2 1.7 4.3 0.00 0.00 0.00 57 1004.4
20221207073400 83 45 1.7 4.3 0.00 0.00 0.00 56 1004.5
20221207073257 83 45 1.7 5.2 0.00 0.00 0.00 57 1004.3
20221207073137 83 47 2.6 5.2 0.00 0.00 0.00 57 1004.3
20221207072905 83 51 2.6 6.1 0.00 0.00 0.00 57 1004.3
20221207072742 83 37 2.6 6.1 0.00 0.00 0.00 57 1004.3
20221207072618 83 24 2.6 6.1 0.00 0.00 0.00 57 1004.2
20221207072450 84 51 1.7 6.1 0.00 0.00 0.00 57 1004.3
20221207072328 84 340 1.7 6.1 0.00 0.00 0.00 57 1004.2
20221207072213 84 345 2.6 6.1 0.00 0.00 0.00 57 1004.2
20221207072054 84 47 2.6 3.5 0.00 0.00 0.00 57 1004.2
20221207071936 84 55 1.7 3.5 0.00 0.00 0.00 57 1004.2
20221207071753 84 54 1.7 3.5 0.00 0.00 0.00 57 1004.2
20221207071614 84 49 1.7 4.3 0.00 0.00 0.00 57 1004.3
20221207071455 84 32 1.7 5.2 0.00 0.00 0.00 57 1004.2
20221207071336 85 8 1.7 5.2 0.00 0.00 0.00 57 1004.2
20221207071205 85 7 1.7 5.2 0.00 0.00 0.00 57 1004.1
20221207071023 85 22 1.7 5.2 0.00 0.00 0.00 57 1004.0
20221207070922 85 13 1.7 5.2 0.00 0.00 0.00 57 1004.0
20221207070741 85 14 2.6 5.2 0.00 0.00 0.00 58 1004.0
20221207070622 85 31 2.6 4.3 0.00 0.00 0.00 57 1004.0
20221207070502 85 59 2.6 4.3 0.00 0.00 0.00 57 1004.0
20221207070338 85 41 1.7 4.3 0.00 0.00 0.00 57 1004.0
20221207070237 85 4 1.7 5.2 0.00 0.00 0.00 57 1003.9
20221207070119 85 2 1.7 7.0 0.00 0.00 0.00 58 1004.0
20221207065932 85 28 2.6 7.0 0.00 0.00 0.00 58 1004.1
20221207065757 85 11 2.6 7.0 0.00 0.00 0.00 58 1004.0
20221207065519 85 41 3.5 7.0 0.00 0.00 0.00 58 1004.0
20221207065346 85 67 3.5 7.0 0.00 0.00 0.00 58 1004.1
20221207065114 85 350 2.6 5.2 0.00 0.00 0.00 58 1004.0
20221207064946 86 11 3.5 5.2 0.00 0.00 0.00 57 1004.0
20221207064826 86 45 3.5 7.0 0.00 0.00 0.00 58 1004.0
20221207064716 86 58 2.6 7.0 0.00 0.00 0.00 58 1004.0
20221207064531 86 64 1.7 7.0 0.00 0.00 0.00 58 1004.0
20221207064358 86 26 1.7 7.0 0.00 0.00 0.00 58 1004.0
20221207064235 86 41 2.6 7.0 0.00 0.00 0.00 57 1004.0
20221207064120 86 34 3.5 7.0 0.00 0.00 0.00 57 1004.0
20221207064024 86 350 3.5 7.0 0.00 0.00 0.00 58 1004.0
20221207063845 86 55 2.6 7.0 0.00 0.00 0.00 57 1004.0
20221207063636 86 53 2.6 7.0 0.00 0.00 0.00 57 1003.9
20221207063512 87 40 2.6 7.0 0.00 0.00 0.00 57 1003.9
20221207063354 87 46 1.7 7.8 0.00 0.00 0.00 57 1003.9
20221207063235 87 41 2.6 7.8 0.00 0.00 0.00 57 1003.8
20221207063117 87 44 3.5 7.8 0.00 0.00 0.00 57 1003.8
20221207062959 87 51 2.6 7.8 0.00 0.00 0.00 57 1003.9
20221207062841 87 8 3.5 7.8 0.00 0.00 0.00 57 1003.9
20221207062733 87 26 3.5 7.8 0.00 0.00 0.00 57 1003.8
20221207062555 87 355 4.3 7.8 0.00 0.00 0.00 57 1003.8
20221207062456 87 12 3.5 7.8 0.00 0.00 0.00 56 1003.9
20221207062322 87 55 4.3 7.8 0.00 0.00 0.00 56 1003.8
20221207062208 88 13 3.5 7.8 0.00 0.00 0.00 57 1003.8
20221207062029 88 345 3.5 7.8 0.00 0.00 0.00 56 1003.8
20221207061911 88 359 3.5 7.8 0.00 0.00 0.00 56 1003.8
20221207061754 88 355 4.3 7.8 0.00 0.00 0.00 55 1003.8
20221207061634 88 355 4.3 7.8 0.00 0.00 0.00 55 1003.9
20221207061512 88 39 3.5 7.8 0.00 0.00 0.00 55 1003.8
20221207061413 88 329 2.6 5.2 0.00 0.00 0.00 55 1003.8
20221207061244 89 38 2.6 5.2 0.00 0.00 0.00 55 1003.7
20221207061103 89 32 3.5 5.2 0.00 0.00 0.00 55 1003.7
20221207061004 89 33 2.6 5.2 0.00 0.00 0.00 55 1003.6
20221207060825 89 68 2.6 5.2 0.00 0.00 0.00 55 1003.7
20221207060700 89 59 2.6 5.2 0.00 0.00 0.00 55 1003.7
20221207060521 89 34 2.6 5.2 0.00 0.00 0.00 55 1003.7
20221207060423 89 32 2.6 7.8 0.00 0.00 0.00 54 1003.7
20221207060251 89 9 2.6 7.8 0.00 0.00 0.00 53 1003.8
20221207060110 89 37 1.7 7.8 0.00 0.00 0.00 54 1003.7
20221207055931 89 51 2.6 7.8 0.00 0.00 0.00 53 1003.7
20221207055813 89 32 2.6 7.8 0.00 0.00 0.00 54 1003.7
20221207055706 89 54 2.6 7.8 0.00 0.00 0.00 54 1003.7
20221207055527 89 9 3.5 10.4 0.00 0.00 0.00 53 1003.8
20221207055407 90 318 3.5 10.4 0.00 0.00 0.00 53 1003.7
20221207055309 90 52 2.6 10.4 0.00 0.00 0.00 53 1003.8
20221207055126 90 32 1.7 10.4 0.00 0.00 0.00 55 1003.8
20221207055012 90 43 2.6 10.4 0.00 0.00 0.00 53 1003.7
20221207054853 90 316 3.5 10.4 0.00 0.00 0.00 54 1003.7
20221207054744 90 359 3.5 10.4 0.00 0.00 0.00 52 1003.7
20221207054606 90 30 1.7 4.3 0.00 0.00 0.00 53 1003.8
20221207054450 90 350 1.7 4.3 0.00 0.00 0.00 54 1003.7
20221207054332 90 1 1.7 7.0 0.00 0.00 0.00 54 1003.7
20221207054217 89 27 2.6 7.0 0.00 0.00 0.00 54 1003.7
20221207054036 89 35 2.6 7.0 0.00 0.00 0.00 52 1003.7
20221207053918 89 350 2.6 7.0 0.00 0.00 0.00 54 1003.8
20221207053800 89 61 1.7 7.0 0.00 0.00 0.00 53 1003.9
20221207053703 89 58 2.6 7.0 0.00 0.00 0.00 54 1003.9
20221207053522 89 350 4.3 7.0 0.00 0.00 0.00 52 1003.9
20221207053402 89 77 4.3 6.1 0.00 0.00 0.00 53 1004.0
20221207053249 89 47 2.6 6.1 0.00 0.00 0.00 53 1004.0
20221207053130 89 22 2.6 6.1 0.00 0.00 0.00 53 1004.0
20221207053033 89 336 2.6 6.1 0.00 0.00 0.00 54 1004.0
20221207052855 89 67 1.7 6.1 0.00 0.00 0.00 54 1004.0
20221207052746 89 43 2.6 6.1 0.00 0.00 0.00 53 1004.0
20221207052607 89 18 4.3 6.1 0.00 0.00 0.00 52 1004.2
20221207052449 90 41 3.5 6.1 0.00 0.00 0.00 52 1004.2
20221207052333 90 15 2.6 6.1 0.00 0.00 0.00 52 1004.1
20221207052235 90 12 3.5 7.8 0.00 0.00 0.00 52 1004.0
20221207052057 90 63 2.6 8.7 0.00 0.00 0.00 52 1004.1
20221207051939 90 95 2.6 8.7 0.00 0.00 0.00 52 1004.0
20221207051822 90 7 2.6 8.7 0.00 0.00 0.00 52 1004.1
20221207051658 90 39 3.5 8.7 0.00 0.00 0.00 52 1004.0
20221207051519 90 75 4.3 8.7 0.00 0.00 0.00 52 1004.2
20221207051401 90 22 4.3 8.7 0.00 0.00 0.00 51 1004.2
20221207051230 90 360 3.5 6.1 0.00 0.00 0.00 51 1004.1
20221207051048 90 3 3.5 7.8 0.00 0.00 0.00 52 1004.1
20221207050930 90 327 3.5 7.8 0.00 0.00 0.00 53 1004.1
20221207050812 90 18 2.6 7.8 0.00 0.00 0.00 53 1004.1
20221207050725 90 24 2.6 7.8 0.00 0.00 0.00 52 1004.1
20221207050524 90 34 2.6 7.8 0.00 0.00 0.00 52 1004.2
20221207050404 90 7 3.5 7.8 0.00 0.00 0.00 52 1004.3
20221207050307 90 8 3.5 7.0 0.00 0.00 0.00 53 1004.3
20221207050127 90 3 3.5 7.0 0.00 0.00 0.00 52 1004.4
20221207050033 90 21 2.6 7.0 0.00 0.00 0.00 52 1004.4
20221207045853 91 39 3.5 7.0 0.00 0.00 0.00 51 1004.4
20221207045726 90 9 3.5 7.0 0.00 0.00 0.00 52 1004.3
20221207045545 90 55 2.6 7.0 0.00 0.00 0.00 53 1004.4
20221207045426 90 38 1.7 7.0 0.00 0.00 0.00 53 1004.4
20221207045307 90 308 3.5 7.0 0.00 0.00 0.00 52 1004.5
20221207045224 90 14 3.5 7.0 0.00 0.00 0.00 52 1004.4
20221207045024 90 48 4.3 7.0 0.00 0.00 0.00 52 1004.4
20221207044905 90 34 2.6 7.0 0.00 0.00 0.00 53 1004.4
20221207044747 90 41 3.5 7.0 0.00 0.00 0.00 52 1004.4
20221207044629 90 1 2.6 5.2 0.00 0.00 0.00 54 1004.4
20221207044511 90 39 2.6 7.0 0.00 0.00 0.00 52 1004.4
20221207044416 90 28 2.6 7.0 0.00 0.00 0.00 54 1004.4
20221207044257 90 32 2.6 7.0 0.00 0.00 0.00 52 1004.5
20221207044116 90 1 2.6 7.0 0.00 0.00 0.00 52 1004.5
20221207043957 90 6 2.6 7.0 0.00 0.00 0.00 52 1004.5
20221207043840 90 24 3.5 7.0 0.00 0.00 0.00 51 1004.5
20221207043732 90 16 3.5 7.0 0.00 0.00 0.00 52 1004.6
20221207043553 90 61 2.6 6.1 0.00 0.00 0.00 53 1004.6
20221207043434 90 63 2.6 6.1 0.00 0.00 0.00 53 1004.5
20221207043311 90 45 3.5 6.1 0.00 0.00 0.00 53 1004.7
20221207043158 90 18 4.3 6.1 0.00 0.00 0.00 51 1004.7
20221207043020 90 11 3.5 6.1 0.00 0.00 0.00 52 1004.8
20221207041804 90 12 3.5 8.7 0.00 0.00 0.00 52 1004.4
20221207040904 90 36 2.6 7.8 0.00 0.00 0.00 51 1004.5
20221207040025 90 7 3.5 7.8 0.00 0.00 0.00 51 1004.7
20221207035404 90 27 3.5 9.6 0.00 0.00 0.00 52 1004.6
20221207034504 90 18 4.3 8.7 0.00 0.00 0.00 50 1004.6
20221207033604 91 34 3.5 8.7 0.00 0.00 0.00 51 1004.6
20221207032703 92 23 3.5 7.8 0.00 0.00 0.00 47 1004.6
20221207031804 93 25 2.6 7.8 0.00 0.00 0.00 46 1004.6
20221207030904 93 20 2.6 4.3 0.00 0.00 0.00 40 1004.9
20221207030004 93 15 1.7 5.2 0.00 0.00 0.00 39 1005.1
20221207025405 93 9 2.6 5.2 0.00 0.00 0.00 39 1005.2
20221207024505 92 18 2.6 5.2 0.00 0.00 0.00 41 1005.4
20221207023605 92 40 2.6 5.2 0.00 0.00 0.00 41 1005.6
20221207022704 92 31 1.7 5.2 0.00 0.00 0.00 41 1005.9
20221207021805 91 2 2.6 7.8 0.00 0.00 0.00 42 1006.1
20221207020905 91 2 2.6 7.0 0.00 0.00 0.00 43 1006.1
20221207020004 91 30 1.7 5.2 0.00 0.00 0.00 44 1006.3
20221207015404 90 23 1.7 4.3 0.00 0.00 0.00 43 1006.4
20221207014504 90 343 1.7 4.3 0.00 0.00 0.00 42 1006.5
20221207013604 90 349 2.6 5.2 0.00 0.00 0.00 44 1006.7
20221207012704 89 8 1.7 6.1 0.00 0.00 0.00 43 1006.7
20221207011803 89 11 1.7 6.1 0.00 0.00 0.00 45 1006.9
20221207010904 89 266 0.9 5.2 0.00 0.00 0.00 44 1007.2
20221207010025 88 251 1.7 4.3 0.00 0.00 0.00 45 1007.2
20221207005404 87 322 1.7 4.3 0.00 0.00 0.00 45 1007.3
20221207004525 86 351 1.7 5.2 0.00 0.00 0.00 48 1007.2
20221207003604 86 67 1.7 6.1 0.00 0.00 0.00 47 1007.2
20221207002704 86 77 1.7 3.5 0.00 0.00 0.00 48 1007.4
20221207001804 85 72 1.7 6.1 0.00 0.00 0.00 51 1007.5
20221207000903 84 24 1.7 3.5 0.00 0.00 0.00 54 1007.3
20221207000004 83 336 1.7 3.5 0.00 0.00 0.00 54 1007.5
20221206235403 83 19 1.7 3.5 0.00 0.00 0.00 54 1007.6
20221206234504 82 81 1.7 3.5 0.00 0.00 0.00 54 1007.6
20221206233604 81 129 1.7 3.5 0.00 0.00 0.00 55 1007.5
20221206232725 81 11 1.7 7.0 0.00 0.00 0.00 55 1007.5
20221206231804 80 72 0.9 2.6 0.00 0.00 0.00 56 1007.3
20221206230904 80 22 1.7 3.5 0.00 0.00 0.00 56 1007.4
20221206230025 80 159 0.9 3.5 0.00 0.00 0.00 56 1007.6
20221206225404 80 78 1.7 3.5 0.00 0.00 0.00 57 1007.8
20221206224504 79 127 1.7 2.6 0.00 0.00 0.00 57 1007.9
20221206223603 78 127 0.9 2.6 0.00 0.00 0.00 59 1008.0